AirNav   Air Wisconsin pilot careers
 
 935 users online  

8ND0 Amble - Tiger North Farms Airport
Sarles, North Dakota, USA

GOING TO SARLES?


FAA INFORMATION EFFECTIVE 24 MAY 2018

Location

FAA Identifier: 8ND0
Lat/Long: 48-54-05.0240N / 099-01-00.4660W
48-54.083733N / 099-01.007767W
48.9013956 / -99.0167961
(estimated)
Elevation: 1590 ft. / 485 m (estimated)
Variation: 08E (1985)
From city: 3 miles SW of SARLES, ND
Time zone: UTC -5 (UTC -6 during Standard Time)
Zip code: 58372

Airport Operations

Airport use: Private use. Permission required prior to landing
Control tower: no
ARTCC: MINNEAPOLIS CENTER
FSS: GRAND FORKS FLIGHT SERVICE STATION
Attendance: IREG
Wind indicator: no
Segmented circle: no

Airport Services

Runway Information

Runway 17/35

Dimensions: 2550 x 60 ft. / 777 x 18 m
RY REMEASURED.
Surface: turf
RUNWAY 17  RUNWAY 35
Traffic pattern: leftleft
Obstructions: 55 ft. elev, 270 ft. from runwaynone

Airport Ownership and Management from official FAA records

Ownership: Privately-owned
Owner: TODD AMBLE
7726-103RD ST. NE
SARLES, ND 58372
Phone 701-697-5243
Manager: TODD AMBLE
7726-103RD ST. NE
SARLES, ND 58372
Phone 701-697-5243

Additional Remarks

LAND TO THE NORTH, DEPART TO THE SOUTH.

Instrument Procedures

There are no published instrument procedures at 8ND0.

Some nearby airports with instrument procedures:

06D - Rolla Municipal Airport (24 nm W)
D55 - Robertson Field Airport (26 nm E)
9D7 - Cando Municipal Airport (27 nm S)
96D - Walhalla Municipal Airport (44 nm E)
KDVL - Devils Lake Regional Airport (47 nm S)
 
Loc | Ops | Rwys | IFR | FBO | Links
Com | Nav | Svcs | Stats | Notes

Mandan Aero Center
 
Area around 8ND0 (Amble - Tiger North Farms Airport)
 
Road maps at: MapQuest Bing Google
 
Aerial photo
No photo
 
Sectional chart

 
Airport distance calculator
Flying to Amble - Tiger North Farms Airport? Find the distance to fly.

From to 8ND0

Sunrise and sunset
Times for 26-May-2018
 Local
(UTC-5)
 Zulu
(UTC)
Morning civil twilight05:0210:02
Sunrise05:4310:43
Sunset21:2402:24
Evening civil twilight22:0403:04

Current date and time
Zulu (UTC)  26-May-2018 19:29:39
Local (UTC-5)  26-May-2018 14:29:39
 
METAR
CWPO 
18nm N 
261900Z AUTO 30009G17KT 26/12 RMK AO1 PK WND 31021/1835 SLP066 T02620123 51001
K06D 
24nm W 
261915Z AUTO 30016KT 10SM CLR 29/09 A2973 RMK AO2
KD55 
26nm E 
261915Z AUTO 32018KT 10SM CLR 29/13 A2972 RMK AO2
K9D7 
27nm S 
261915Z AUTO 30015G21KT 10SM CLR 30/10 A2973 RMK AO2
TAF
KDVL 
47nm S 
261745Z 2618/2718 29011G20KT P6SM SKC FM262100 30010KT P6SM SKC FM270500 14005KT P6SM FEW250 FM271500 08008KT P6SM SCT200
NOTAMs
Click for the latest NOTAMs
NOTAMs are issued by the DoD/FAA and will open in a separate window not controlled by AirNav.

 

 
 

Would you like to see your business listed on this page?

 If your business provides an interesting product or service to pilots, flight crews, aircraft, or users of the Amble - Tiger North Farms Airport, you should consider listing it here.  To start the listing process, click on the button below
 
Add a business
 

Other Pages about Amble - Tiger North Farms Airport

Update a link
 
Copyright © AirNav, LLC. All rights reserved. Privacy Policy  Contact